This is the latest recevied weather packets stored in our database for station/object PY2RMF-10. If no packets are shown the sender has not sent any weather packets the latest 10 day(s).
| Time | Temp. | Humidity | Pressure | Rain* | Wind** | Luminosity | Snow |
|---|---|---|---|---|---|---|---|
| 1778068111 | 22.22° C | 100% | 1009 hPa | - | - | - | - |
| 1778066311 | 21.67° C | 100% | 1009 hPa | - | - | - | - |
| 1778064511 | 21.11° C | 100% | 1009 hPa | - | - | - | - |
| 1778062711 | 20° C | 100% | 1008 hPa | - | - | - | - |
| 1778060912 | 19.44° C | 100% | 1008 hPa | - | - | - | - |
| 1778059112 | 19.44° C | 100% | 1008 hPa | - | - | - | - |
| 1778057311 | 20° C | 100% | 1007 hPa | - | - | - | - |
| 1778055511 | 20° C | 100% | 1007 hPa | - | - | - | - |
| 1778053711 | 20.56° C | 100% | 1007 hPa | - | - | - | - |
| 1778051911 | 20.56° C | 100% | 1007 hPa | - | - | - | - |
| 1778050112 | 20.56° C | 100% | 1007 hPa | - | - | - | - |
| 1778048312 | 21.11° C | 100% | 1007 hPa | - | - | - | - |
| 1778046511 | 21.11° C | 100% | 1007 hPa | - | - | - | - |
| 1778044711 | 21.11° C | 100% | 1007 hPa | - | - | - | - |
| 1778042911 | 21.67° C | 100% | 1008 hPa | - | - | - | - |
| 1778041111 | 21.67° C | 98% | 1008 hPa | - | - | - | - |
| 1778039312 | 22.22° C | 93% | 1008 hPa | - | - | - | - |
| 1778037512 | 22.22° C | 92% | 1008 hPa | - | - | - | - |
| 1778035711 | 22.22° C | 90% | 1008 hPa | - | - | - | - |
| 1778033911 | 22.78° C | 89% | 1009 hPa | - | - | - | - |
| 1778032111 | 22.78° C | 88% | 1008 hPa | - | - | - | - |
| 1778030311 | 22.78° C | 87% | 1009 hPa | - | - | - | - |
| 1778028512 | 22.78° C | 84% | 1009 hPa | - | - | - | - |
| 1778026712 | 23.33° C | 83% | 1009 hPa | - | - | - | - |
| 1778024911 | 23.33° C | 79% | 1009 hPa | - | - | - | - |
* Rain since midnight (hover to see other rain measurements)
** Current wind speed in m/s (hover to see current wind gust speed)